Torna al catalogo

STARLINK-37739

AttivoComunicazioniSSO
NORAD 69233·PAYLOAD·🇺🇸 United States

Lanciato May 26, 2026 da Vandenberg Space Force Base

Loading…

Prossimi Passaggi (prossime 24 ore)

TLE

AggiornatoSource: CelesTrak SupGP

Epoca: Sep 15, 2026, 04:28 UTC

1 69233C 26115Y   26258.18659722 -.00058686  00000+0 -18220-2 0  2588
2 69233  97.2832 274.4133 0001443  93.6796 129.7470 15.33463807    13

Traccia STARLINK-37739 in tempo reale con AllMySat

Download on the App Store